Radiosonde details



Informationen :

Serial : Y0552601
Type : Vaisala RS41-NG
Date of production : 30.01.2026
Frequency : 404.800MHz
Launchsite : Boise Air Terminal
Nearest town : Fairfield, US (49.8km)

Altitude (Max) : 30828m at 2026-08-31 00:37:34
Speed (Max) : 87km/h at altitude 8869m

Average speed : 40km/h
Average ascent rate : 5m/s
Average descent rate : -10m/s
Ascent rate (Max) : 9.2m/s
Descent rate (Max): -23.4m/s

First frame :
KE7DJD at 2026-08-30 23:04:27 at altitude 1239m (OG: 1197m)
Last frame :
KE7DJD at 2026-08-31 01:17:09 at altitude 6346m (OG: 6304m)

Flighttime : 2h12m42s
Ascent time : 1h33m7s
Descent time : 39m35s
Uptime : -
Killtimer : 7h51m

Distance (Straight line distance): 71km

Distance (Route):


Frames : 378


Measurement :

Temperature : -14.5°C
Humidity : 44.5%
Pressure : 0hPa


Vertical profile (SkewT) :


Elevation profile :



Receiving stations :


Receiver Frames First received Last received
KE7DJD 378 2026-08-30 23:04:27 2026-08-31 01:17:09

Share per receiver :



All frames :


Receiver Date Latitude Longitude Direction Speed Altitude Climb Temperature Humidity Pressure Voltage Killtimer Uptime BKT XDATA
KE7DJD2026-08-31 01:17:0943.56331-115.3312489°60km/h6346m-5.6m/s-14.5°C44.5%0hPa0V07:51:0000:00:0000:00:00
KE7DJD2026-08-31 01:16:5043.56316-115.3353386°60km/h6460m-5.6m/s-15.4°C45.9%0hPa0V07:51:0000:00:0000:00:00
KE7DJD2026-08-31 01:16:2843.56317-115.3397395°57km/h6579m-5.6m/s-16.3°C48.4%0hPa0V07:52:0000:00:0000:00:00
KE7DJD2026-08-31 01:16:0843.56334-115.3436197°57km/h6690m-5.6m/s-17.0°C53.0%0hPa0V07:52:0000:00:0000:00:00
KE7DJD2026-08-31 01:15:4743.56356-115.3472998°49km/h6807m-5.5m/s-17.8°C50.6%0hPa0V07:52:0000:00:0000:00:00
KE7DJD2026-08-31 01:15:2843.56371-115.3507491°49km/h6919m-5.6m/s-18.5°C52.4%0hPa0V07:53:0000:00:0000:00:00
KE7DJD2026-08-31 01:15:0743.56368-115.3545192°57km/h7033m-5.6m/s-18.9°C50.5%0hPa0V07:53:0000:00:0000:00:00
KE7DJD2026-08-31 01:14:4643.56380-115.3588997°62km/h7151m-5.6m/s-19.5°C49.8%0hPa0V07:53:0000:00:0000:00:00
KE7DJD2026-08-31 01:14:2643.56397-115.3633993°68km/h7266m-5.8m/s-20.2°C52.3%0hPa0V07:53:0000:00:0000:00:00
KE7DJD2026-08-31 01:14:0643.56416-115.3683990°68km/h7384m-5.7m/s-20.7°C51.0%0hPa0V07:53:0000:00:0000:00:00
KE7DJD2026-08-31 01:13:4443.56404-115.3733188°62km/h7504m-5.7m/s-21.5°C51.5%0hPa0V07:54:0000:00:0000:00:00
KE7DJD2026-08-31 01:13:2343.56396-115.3780789°66km/h7622m-5.6m/s-22.4°C58.5%0hPa0V07:54:0000:00:0000:00:00
KE7DJD2026-08-31 01:13:0343.56401-115.3828296°64km/h7740m-5.6m/s-23.3°C58.3%0hPa0V07:55:0000:00:0000:00:00
KE7DJD2026-08-31 01:12:4243.56427-115.3874196°68km/h7853m-5.6m/s-24.1°C59.8%0hPa0V07:55:0000:00:0000:00:00
KE7DJD2026-08-31 01:12:2143.56456-115.3921892°66km/h7971m-5.5m/s-25.0°C62.5%0hPa0V07:55:0000:00:0000:00:00
KE7DJD2026-08-31 01:12:0043.56483-115.3970495°66km/h8088m-5.5m/s-25.9°C62.2%0hPa0V07:56:0000:00:0000:00:00
KE7DJD2026-08-31 01:11:3943.56496-115.4019393°69km/h8203m-5.4m/s-26.8°C60.3%0hPa0V07:56:0000:00:0000:00:00
KE7DJD2026-08-31 01:11:1843.56504-115.4068492°73km/h8317m-5.3m/s-27.5°C63.2%0hPa0V07:57:0000:00:0000:00:00
KE7DJD2026-08-31 01:10:5743.56517-115.4119994°68km/h8431m-5.3m/s-28.2°C60.3%0hPa0V07:57:0000:00:0000:00:00
KE7DJD2026-08-31 01:10:3643.56532-115.4172794°75km/h8544m-5.4m/s-29.2°C65.6%0hPa0V07:58:0000:00:0000:00:00
KE7DJD2026-08-31 01:10:1543.56551-115.4225293°71km/h8655m-5.3m/s-30.3°C67.9%0hPa0V07:58:0000:00:0000:00:00
KE7DJD2026-08-31 01:09:5543.56569-115.4275997°73km/h8761m-5.4m/s-31.1°C72.1%0hPa0V07:58:0000:00:0000:00:00
KE7DJD2026-08-31 01:09:3543.56587-115.4329494°73km/h8873m-5.4m/s-32.1°C73.0%0hPa0V07:59:0000:00:0000:00:00
KE7DJD2026-08-31 01:09:1343.56603-115.4382395°69km/h8988m-5.6m/s-33.0°C73.6%0hPa0V07:59:0000:00:0000:00:00
KE7DJD2026-08-31 01:08:5343.56625-115.4432296°71km/h9099m-5.5m/s-33.8°C72.9%0hPa0V07:59:0000:00:0000:00:00
KE7DJD2026-08-31 01:08:3243.56668-115.44840100°71km/h9215m-5.6m/s-34.8°C73.3%0hPa0V07:59:0000:00:0000:00:00
KE7DJD2026-08-31 01:08:1243.56719-115.45326102°71km/h9327m-5.6m/s-35.8°C73.5%0hPa0V07:59:0000:00:0000:00:00
KE7DJD2026-08-31 01:07:5143.56793-115.45816106°71km/h9446m-5.7m/s-36.7°C62.2%0hPa0V08:00:0000:00:0000:00:00
KE7DJD2026-08-31 01:07:3043.56882-115.46305107°69km/h9568m-5.8m/s-37.6°C57.6%0hPa0V08:00:0000:00:0000:00:00
KE7DJD2026-08-31 01:07:1043.56964-115.46767105°69km/h9684m-6.0m/s-38.6°C53.2%0hPa0V08:01:0000:00:0000:00:00
KE7DJD2026-08-31 01:06:4943.57040-115.47259101°71km/h9810m-6.0m/s-39.6°C42.1%0hPa0V08:01:0000:00:0000:00:00
KE7DJD2026-08-31 01:06:2943.57104-115.4771199°62km/h9931m-6.1m/s-40.4°C31.5%0hPa0V08:01:0000:00:0000:00:00
KE7DJD2026-08-31 01:06:0943.57168-115.48156103°68km/h10054m-6.2m/s-41.4°C33.2%0hPa0V08:02:0000:00:0000:00:00
KE7DJD2026-08-31 01:05:4943.57242-115.48610102°64km/h10186m-6.3m/s-42.5°C38.8%0hPa0V08:02:0000:00:0000:00:00
KE7DJD2026-08-31 01:05:2743.57316-115.49053105°62km/h10319m-6.5m/s-43.8°C46.7%0hPa0V08:03:0000:00:0000:00:00
KE7DJD2026-08-31 01:05:0643.57413-115.49486110°60km/h10455m-6.6m/s-45.0°C51.4%0hPa0V08:03:0000:00:0000:00:00
KE7DJD2026-08-31 01:04:4643.57536-115.49891114°64km/h10588m-6.7m/s-46.2°C50.4%0hPa0V08:03:0000:00:0000:00:00
KE7DJD2026-08-31 01:04:2543.57684-115.50307121°64km/h10728m-6.7m/s-47.3°C42.2%0hPa0V08:04:0000:00:0000:00:00
KE7DJD2026-08-31 01:04:0443.57836-115.50717115°66km/h10870m-6.8m/s-48.3°C37.7%0hPa0V08:04:0000:00:0000:00:00
KE7DJD2026-08-31 01:03:4343.57971-115.51138114°58km/h11015m-7.0m/s-49.5°C34.9%0hPa0V08:05:0000:00:0000:00:00
KE7DJD2026-08-31 01:03:2343.58084-115.51527111°57km/h11153m-6.9m/s-50.6°C34.3%0hPa0V08:05:0000:00:0000:00:00
KE7DJD2026-08-31 01:03:0243.58200-115.51921111°53km/h11300m-6.9m/s-51.7°C34.9%0hPa0V08:05:0000:00:0000:00:00
KE7DJD2026-08-31 01:02:4243.58329-115.52273119°57km/h11441m-7.2m/s-52.8°C37.3%0hPa0V08:05:0000:00:0000:00:00
KE7DJD2026-08-31 01:02:2243.58480-115.52618122°57km/h11584m-7.1m/s-54.1°C40.4%0hPa0V08:05:0000:00:0000:00:00
KE7DJD2026-08-31 01:02:0143.58660-115.52955131°58km/h11737m-7.3m/s-55.3°C40.3%0hPa0V08:06:0000:00:0000:00:00
KE7DJD2026-08-31 01:01:4043.58845-115.53287128°60km/h11890m-7.4m/s-56.6°C40.5%0hPa0V08:06:0000:00:0000:00:00
KE7DJD2026-08-31 01:01:2043.59040-115.53599131°58km/h12036m-7.3m/s-57.8°C38.6%0hPa0V08:06:0000:00:0000:00:00
KE7DJD2026-08-31 01:00:5943.59217-115.53932124°51km/h12187m-7.3m/s-58.6°C37.7%0hPa0V08:07:0000:00:0000:00:00
KE7DJD2026-08-31 01:00:1843.59306-115.5461189°58km/h12483m-7.1m/s-58.9°C22.6%0hPa0V08:08:0000:00:0000:00:00
KE7DJD2026-08-31 00:59:5743.59301-115.5504598°58km/h12635m-7.1m/s-58.6°C16.9%0hPa0V08:08:0000:00:0000:00:00
KE7DJD2026-08-31 00:59:3743.59401-115.55460113°58km/h12780m-7.4m/s-57.5°C10.7%0hPa0V08:08:0000:00:0000:00:00
KE7DJD2026-08-31 00:59:1743.59466-115.5579491°46km/h12937m-7.5m/s-56.0°C7.9%0hPa0V08:09:0000:00:0000:00:00
KE7DJD2026-08-31 00:58:5643.59443-115.5613685°49km/h13088m-7.5m/s-56.6°C7.5%0hPa0V08:09:0000:00:0000:00:00
KE7DJD2026-08-31 00:58:3543.59389-115.5654380°64km/h13246m-7.6m/s-57.9°C6.8%0hPa0V08:10:0000:00:0000:00:00
KE7DJD2026-08-31 00:58:1543.59360-115.5704787°71km/h13408m-7.8m/s-58.0°C5.6%0hPa0V08:10:0000:00:0000:00:00
KE7DJD2026-08-31 00:57:5343.59400-115.57539100°57km/h13573m-8.2m/s-57.4°C4.5%0hPa0V08:10:0000:00:0000:00:00
KE7DJD2026-08-31 00:57:3343.59380-115.5792079°58km/h13734m-8.0m/s-56.8°C3.9%0hPa0V08:10:0000:00:0000:00:00
KE7DJD2026-08-31 00:57:1243.59332-115.5838385°64km/h13904m-8.3m/s-56.3°C3.3%0hPa0V08:10:0000:00:0000:00:00
KE7DJD2026-08-31 00:56:5243.59323-115.5878288°57km/h14071m-8.5m/s-56.9°C3.3%0hPa0V08:11:0000:00:0000:00:00
KE7DJD2026-08-31 00:56:3143.59290-115.5920889°58km/h14250m-8.4m/s-57.7°C3.3%0hPa0V08:11:0000:00:0000:00:00
KE7DJD2026-08-31 00:56:1043.59268-115.5962381°55km/h14427m-8.4m/s-57.6°C2.9%0hPa0V08:12:0000:00:0000:00:00
KE7DJD2026-08-31 00:55:5043.59189-115.5999581°57km/h14597m-8.6m/s-58.4°C2.7%0hPa0V08:12:0000:00:0000:00:00
KE7DJD2026-08-31 00:55:2943.59129-115.6037276°53km/h14781m-8.7m/s-56.8°C2.1%0hPa0V08:12:0000:00:0000:00:00
KE7DJD2026-08-31 00:55:0943.59059-115.6074384°57km/h14957m-8.8m/s-56.8°C2.0%0hPa0V08:13:0000:00:0000:00:00
KE7DJD2026-08-31 00:54:4843.58989-115.6115076°55km/h15147m-9.3m/s-55.9°C1.8%0hPa0V08:13:0000:00:0000:00:00
KE7DJD2026-08-31 00:54:2843.58910-115.6148464°46km/h15331m-9.1m/s-56.1°C1.8%0hPa0V08:14:0000:00:0000:00:00
KE7DJD2026-08-31 00:54:0843.58793-115.6183169°51km/h15528m-9.6m/s-56.3°C1.7%0hPa0V08:14:0000:00:0000:00:00
KE7DJD2026-08-31 00:53:4643.58696-115.6218172°53km/h15730m-9.8m/s-56.2°C1.7%0hPa0V08:14:0000:00:0000:00:00
KE7DJD2026-08-31 00:53:2743.58653-115.6256089°49km/h15928m-10.2m/s-55.8°C1.7%0hPa0V08:15:0000:00:0000:00:00
KE7DJD2026-08-31 00:53:0543.58628-115.6285173°33km/h16140m-10.2m/s-55.6°C1.6%0hPa0V08:15:0000:00:0000:00:00
KE7DJD2026-08-31 00:52:4543.58536-115.6310660°46km/h16348m-10.2m/s-56.8°C1.7%0hPa0V08:16:0000:00:0000:00:00
KE7DJD2026-08-31 00:52:2443.58423-115.6344176°49km/h16574m-10.8m/s-57.2°C1.8%0hPa0V08:16:0000:00:0000:00:00
KE7DJD2026-08-31 00:52:0343.58385-115.6375982°37km/h16805m-10.9m/s-56.2°C1.6%0hPa0V08:16:0000:00:0000:00:00
KE7DJD2026-08-31 00:51:4343.58362-115.6402785°35km/h17024m-10.7m/s-55.3°C1.5%0hPa0V08:16:0000:00:0000:00:00
KE7DJD2026-08-31 00:51:2243.58305-115.6422346°33km/h17251m-11.1m/s-55.3°C1.4%0hPa0V08:16:0000:00:0000:00:00
KE7DJD2026-08-31 00:51:0143.58130-115.6440643°47km/h17478m-10.7m/s-55.6°C1.5%0hPa0V08:17:0000:00:0000:00:00
KE7DJD2026-08-31 00:50:4043.57988-115.6465766°33km/h17707m-11.0m/s-55.2°C1.5%0hPa0V08:17:0000:00:0000:00:00
KE7DJD2026-08-31 00:50:2043.57873-115.6482345°33km/h17933m-11.9m/s-55.4°C1.4%0hPa0V08:17:0000:00:0000:00:00
KE7DJD2026-08-31 00:49:5943.57782-115.6501764°26km/h18181m-12.2m/s-56.2°C1.5%0hPa0V08:18:0000:00:0000:00:00
KE7DJD2026-08-31 00:49:3843.57710-115.65080346°22km/h18439m-11.9m/s-56.4°C1.4%0hPa0V08:18:0000:00:0000:00:00
KE7DJD2026-08-31 00:49:1743.57616-115.6506512°24km/h18695m-12.0m/s-57.9°C1.6%0hPa0V00:00:0000:00:0000:00:00
KE7DJD2026-08-31 00:48:5743.57537-115.6512957°15km/h18947m-12.8m/s-57.3°C1.5%0hPa0V00:00:0000:00:0000:00:00
KE7DJD2026-08-31 00:48:3543.57469-115.6517321°27km/h19230m-13.1m/s-57.9°C1.5%0hPa0V00:00:0000:00:0000:00:00
KE7DJD2026-08-31 00:48:1443.57318-115.6527348°31km/h19504m-13.6m/s-56.7°C1.5%0hPa0V08:20:0000:00:0000:00:00
KE7DJD2026-08-31 00:47:5343.57242-115.6549475°29km/h19787m-14.1m/s-55.3°C1.4%0hPa0V08:20:0000:00:0000:00:00
KE7DJD2026-08-31 00:47:3343.57245-115.65576305°2km/h20067m-14.2m/s-52.9°C1.2%0hPa0V08:21:0000:00:0000:00:00
KE7DJD2026-08-31 00:47:1343.57246-115.65495340°9km/h20348m-13.6m/s-53.0°C1.2%0hPa0V08:21:0000:00:0000:00:00
KE7DJD2026-08-31 00:46:5243.57167-115.6550133°16km/h20649m-14.9m/s-54.2°C1.2%0hPa0V08:21:0000:00:0000:00:00
KE7DJD2026-08-31 00:46:3243.57147-115.6559397°20km/h20944m-14.4m/s-56.3°C1.4%0hPa0V08:22:0000:00:0000:00:00
KE7DJD2026-08-31 00:46:1143.57141-115.6563620°16km/h21261m-15.3m/s-55.5°C1.4%0hPa0V08:22:0000:00:0000:00:00
KE7DJD2026-08-31 00:45:5143.57085-115.6573970°15km/h21553m-14.9m/s-54.6°C1.3%0hPa0V08:22:0000:00:0000:00:00
KE7DJD2026-08-31 00:45:3143.57094-115.65840182°7km/h21849m-14.9m/s-54.3°C1.2%0hPa0V08:22:0000:00:0000:00:00
KE7DJD2026-08-31 00:45:1043.57114-115.65898133°4km/h22168m-15.3m/s-53.7°C1.2%0hPa0V08:22:0000:00:0000:00:00
KE7DJD2026-08-31 00:44:4943.57095-115.65910359°7km/h22491m-14.9m/s-52.6°C1.1%0hPa0V08:23:0000:00:0000:00:00
KE7DJD2026-08-31 00:44:2843.57058-115.65887300°9km/h22823m-15.8m/s-52.4°C1.1%0hPa0V08:23:0000:00:0000:00:00
KE7DJD2026-08-31 00:44:0843.57058-115.65809301°18km/h23145m-16.3m/s-52.5°C1.0%0hPa0V08:24:0000:00:0000:00:00
KE7DJD2026-08-31 00:43:4843.56934-115.6573613°29km/h23474m-16.8m/s-52.3°C1.1%0hPa0V08:24:0000:00:0000:00:00
KE7DJD2026-08-31 00:43:2743.56795-115.6582952°26km/h23834m-17.4m/s-51.1°C1.0%0hPa0V08:24:0000:00:0000:00:00
KE7DJD2026-08-31 00:43:0743.56749-115.65887305°7km/h24184m-16.6m/s-49.5°C0.9%0hPa0V08:25:0000:00:0000:00:00
KE7DJD2026-08-31 00:42:4543.56711-115.6594265°15km/h24575m-16.8m/s-48.2°C0.8%0hPa0V08:25:0000:00:0000:00:00
KE7DJD2026-08-31 00:42:2443.56693-115.65930361°5km/h24956m-17.3m/s-48.3°C0.9%0hPa0V08:26:0000:00:0000:00:00
KE7DJD2026-08-31 00:42:0443.56717-115.65964214°7km/h25321m-18.7m/s-48.4°C0.8%0hPa0V08:26:0000:00:0000:00:00
KE7DJD2026-08-31 00:41:4443.56799-115.65968186°26km/h25692m-19.3m/s-47.9°C0.8%0hPa0V08:27:0000:00:0000:00:00
KE7DJD2026-08-31 00:41:2343.56884-115.65882208°27km/h26095m-19.0m/s-48.1°C0.8%0hPa0V08:27:0000:00:0000:00:00
KE7DJD2026-08-31 00:41:0343.56943-115.65723309°29km/h26494m-17.1m/s-48.2°C0.8%0hPa0V08:27:0000:00:0000:00:00
KE7DJD2026-08-31 00:40:4243.56881-115.65587239°13km/h26874m-19.0m/s-48.0°C0.8%0hPa0V08:27:0000:00:0000:00:00
KE7DJD2026-08-31 00:40:2243.56851-115.65508312°22km/h27290m-22.3m/s-47.9°C0.8%0hPa0V08:27:0000:00:0000:00:00
KE7DJD2026-08-31 00:40:0143.56716-115.6544410°22km/h27744m-22.6m/s-47.9°C0.8%0hPa0V08:28:0000:00:0000:00:00
KE7DJD2026-08-31 00:39:4143.56569-115.6548563°46km/h28167m-21.3m/s-46.6°C0.8%0hPa0V08:28:0000:00:0000:00:00
KE7DJD2026-08-31 00:39:2043.56602-115.65530279°22km/h28612m-22.9m/s-45.0°C0.7%0hPa0V08:28:0000:00:0000:00:00
KE7DJD2026-08-31 00:38:5943.56608-115.65467200°22km/h29025m-18.2m/s-44.4°C0.7%0hPa0V08:29:0000:00:0000:00:00
KE7DJD2026-08-31 00:38:3743.56606-115.6539489°13km/h29503m-23.4m/s-44.8°C0.7%0hPa0V08:29:0000:00:0000:00:00
KE7DJD2026-08-31 00:38:1643.56699-115.65459311°18km/h29947m-21.4m/s-43.4°C0.6%0hPa0V00:00:0000:00:0000:00:00
KE7DJD2026-08-31 00:37:5743.56660-115.65476109°33km/h30390m-19.2m/s-42.4°C0.6%0hPa0V00:00:0000:00:0000:00:00
KE7DJD2026-08-31 00:37:3443.56676-115.65594103°29km/h30828m-13.7m/s-41.4°C0.6%0hPa0V00:00:0000:00:0000:00:00
KE7DJD2026-08-31 00:37:1443.56684-115.6573672°35km/h30725m4.1m/s-41.3°C0.6%0hPa0V00:00:0000:00:0000:00:00
KE7DJD2026-08-31 00:36:5443.56703-115.6585497°9km/h30599m7.0m/s-41.4°C0.6%0hPa0V00:00:0000:00:0000:00:00
KE7DJD2026-08-31 00:36:3243.56727-115.65964105°18km/h30471m6.2m/s-42.1°C0.6%0hPa0V00:00:0000:00:0000:00:00
KE7DJD2026-08-31 00:36:1243.56692-115.66060352°4km/h30350m5.5m/s-43.4°C0.7%0hPa0V00:00:0000:00:0000:00:00
KE7DJD2026-08-31 00:35:5143.56627-115.66051350°4km/h30223m7.3m/s-43.7°C0.7%0hPa0V00:00:0000:00:0000:00:00
KE7DJD2026-08-31 00:35:3043.56633-115.6598259°15km/h30091m5.9m/s-43.3°C0.7%0hPa0V00:00:0000:00:0000:00:00
KE7DJD2026-08-31 00:35:1043.56686-115.65934165°22km/h29972m7.2m/s-43.9°C0.6%0hPa0V00:00:0000:00:0000:00:00
KE7DJD2026-08-31 00:34:4943.56827-115.65978131°18km/h29846m7.0m/s-45.0°C0.7%0hPa0V00:00:0000:00:0000:00:00
KE7DJD2026-08-31 00:34:2943.56916-115.66061169°18km/h29724m5.0m/s-45.1°C0.7%0hPa0V00:00:0000:00:0000:00:00
KE7DJD2026-08-31 00:34:0843.56951-115.66160173°11km/h29593m7.1m/s-45.0°C0.7%0hPa0V00:00:0000:00:0000:00:00
KE7DJD2026-08-31 00:33:4843.56943-115.66196100°5km/h29471m6.5m/s-44.6°C0.7%0hPa0V00:00:0000:00:0000:00:00
KE7DJD2026-08-31 00:33:2743.56889-115.66185259°26km/h29341m5.7m/s-44.4°C0.7%0hPa0V00:00:0000:00:0000:00:00
KE7DJD2026-08-31 00:33:0843.56823-115.66114345°18km/h29217m7.3m/s-44.5°C0.7%0hPa0V00:00:0000:00:0000:00:00
KE7DJD2026-08-31 00:32:4643.56777-115.66028220°27km/h29084m4.7m/s-44.4°C0.7%0hPa0V00:00:0000:00:0000:00:00
KE7DJD2026-08-31 00:32:2643.56764-115.65951310°9km/h28954m4.7m/s-44.1°C0.7%0hPa0V00:00:0000:00:0000:00:00
KE7DJD2026-08-31 00:32:0443.56788-115.65907237°9km/h28826m6.4m/s-44.3°C0.7%0hPa0V00:00:0000:00:0000:00:00
KE7DJD2026-08-31 00:31:4443.56795-115.65845256°16km/h28703m7.2m/s-44.8°C0.7%0hPa0V00:00:0000:00:0000:00:00
KE7DJD2026-08-31 00:31:2243.56800-115.6586210°11km/h28571m7.3m/s-45.1°C0.8%0hPa0V00:00:0000:00:0000:00:00
KE7DJD2026-08-31 00:31:0143.56806-115.6590671°16km/h28445m7.3m/s-45.2°C0.7%0hPa0V00:00:0000:00:0000:00:00
KE7DJD2026-08-31 00:30:4043.56797-115.65951166°2km/h28321m4.5m/s-45.9°C0.7%0hPa0V00:00:0000:00:0000:00:00
KE7DJD2026-08-31 00:30:2043.56799-115.660310km/h28202m6.6m/s-46.5°C0.8%0hPa0V00:00:0000:00:0000:00:00
KE7DJD2026-08-31 00:30:0043.56751-115.6611843°22km/h28088m6.1m/s-47.2°C0.8%0hPa0V00:00:0000:00:0000:00:00
KE7DJD2026-08-31 00:29:3943.56624-115.66154335°40km/h27967m4.8m/s-47.8°C0.8%0hPa0V00:00:0000:00:0000:00:00
KE7DJD2026-08-31 00:29:1943.56480-115.66115355°37km/h27844m5.2m/s-47.6°C0.8%0hPa0V00:00:0000:00:0000:00:00
KE7DJD2026-08-31 00:28:5943.56357-115.66051355°22km/h27724m5.3m/s-47.4°C0.8%0hPa0V00:00:0000:00:0000:00:00
KE7DJD2026-08-31 00:28:3743.56234-115.65964308°16km/h27596m5.3m/s-47.2°C0.8%0hPa0V00:00:0000:00:0000:00:00
KE7DJD2026-08-31 00:28:1643.56120-115.6585916km/h27459m6.8m/s-47.3°C0.8%0hPa0V00:00:0000:00:0000:00:00
KE7DJD2026-08-31 00:27:3543.55940-115.65652296°15km/h27204m7.1m/s-48.1°C0.9%0hPa0V00:00:0000:00:0000:00:00
KE7DJD2026-08-31 00:27:1343.55905-115.65546238°11km/h27074m7.5m/s-48.1°C0.9%0hPa0V00:00:0000:00:0000:00:00
KE7DJD2026-08-31 00:26:5343.55903-115.65458292°27km/h26954m3.9m/s-47.7°C0.9%0hPa0V00:00:0000:00:0000:00:00
KE7DJD2026-08-31 00:26:3243.55913-115.65357316°24km/h26828m5.7m/s-47.9°C0.9%0hPa0V00:00:0000:00:0000:00:00
KE7DJD2026-08-31 00:26:1043.55877-115.65218289°26km/h26696m6.8m/s-48.0°C0.9%0hPa0V00:00:0000:00:0000:00:00
KE7DJD2026-08-31 00:25:4943.55807-115.65031298°47km/h26573m7.0m/s-48.5°C0.9%0hPa0V00:00:0000:00:0000:00:00
KE7DJD2026-08-31 00:25:2843.55760-115.64809258°38km/h26445m7.0m/s-48.4°C0.9%0hPa0V00:00:0000:00:0000:00:00
KE7DJD2026-08-31 00:25:0843.55806-115.64668236°16km/h26330m5.8m/s-48.2°C0.9%0hPa0V00:00:0000:00:0000:00:00
KE7DJD2026-08-31 00:24:4743.55914-115.64525180°26km/h26209m7.1m/s-48.6°C0.9%0hPa0V00:00:0000:00:0000:00:00
KE7DJD2026-08-31 00:24:2743.56032-115.64449255°18km/h26095m6.0m/s-48.0°C0.9%0hPa0V00:00:0000:00:0000:00:00
KE7DJD2026-08-31 00:24:0743.56116-115.64362219°9km/h25979m6.6m/s-47.9°C0.9%0hPa0V00:00:0000:00:0000:00:00
KE7DJD2026-08-31 00:23:2643.56268-115.64216202°26km/h25740m7.0m/s-48.1°C0.9%0hPa0V00:00:0000:00:0000:00:00
KE7DJD2026-08-31 00:23:0543.56327-115.64223203°26km/h25618m6.9m/s-48.1°C0.9%0hPa0V00:00:0000:00:0000:00:00
KE7DJD2026-08-31 00:22:4543.56406-115.64236166°31km/h25495m5.3m/s-48.9°C1.0%0hPa0V00:00:0000:00:0000:00:00
KE7DJD2026-08-31 00:22:2443.56446-115.64219159°2km/h25377m6.6m/s-48.9°C0.9%0hPa0V00:00:0000:00:0000:00:00
KE7DJD2026-08-31 00:22:0343.56472-115.6422335°7km/h25253m6.2m/s-48.2°C0.9%0hPa0V00:00:0000:00:0000:00:00
KE7DJD2026-08-31 00:21:4243.56483-115.6430177°22km/h25127m6.5m/s-48.4°C1.0%0hPa0V00:00:0000:00:0000:00:00
KE7DJD2026-08-31 00:21:1943.56452-115.6436665°13km/h24994m5.8m/s-48.2°C0.9%0hPa0V00:00:0000:00:0000:00:00
KE7DJD2026-08-31 00:20:3843.56374-115.64260275°9km/h24760m4.4m/s-48.6°C1.0%0hPa0V00:00:0000:00:0000:00:00
KE7DJD2026-08-31 00:20:1743.56349-115.6428837°16km/h24639m6.3m/s-48.0°C0.9%0hPa0V00:00:0000:00:0000:00:00
KE7DJD2026-08-31 00:19:5543.56293-115.6442454°37km/h24510m5.2m/s-48.7°C1.0%0hPa0V00:00:0000:00:0000:00:00
KE7DJD2026-08-31 00:19:3043.56238-115.6454549°15km/h24376m4.9m/s-48.6°C0.9%0hPa0V00:00:0000:00:0000:00:00
KE7DJD2026-08-31 00:19:1043.56213-115.64536211°18km/h24262m6.0m/s-49.2°C0.9%0hPa0V00:00:0000:00:0000:00:00
KE7DJD2026-08-31 00:18:5043.56175-115.6454223°4km/h24149m6.9m/s-49.7°C1.0%0hPa0V00:00:0000:00:0000:00:00
KE7DJD2026-08-31 00:18:2943.56133-115.6462260°7km/h24033m6.0m/s-50.6°C1.0%0hPa0V00:00:0000:00:0000:00:00
KE7DJD2026-08-31 00:18:0943.56073-115.6469551°15km/h23919m7.0m/s-51.1°C1.1%0hPa0V00:00:0000:00:0000:00:00
KE7DJD2026-08-31 00:17:4943.55968-115.6481940°47km/h23808m4.8m/s-51.2°C1.1%0hPa0V00:00:0000:00:0000:00:00
KE7DJD2026-08-31 00:17:2843.55827-115.6491936°33km/h23692m6.3m/s-51.2°C1.1%0hPa0V00:00:0000:00:0000:00:00
KE7DJD2026-08-31 00:17:0743.55667-115.64962359°31km/h23577m4.3m/s-51.7°C1.1%0hPa0V00:00:0000:00:0000:00:00
KE7DJD2026-08-31 00:16:4743.55510-115.6497047km/h23464m5.9m/s-52.6°C1.2%0hPa0V00:00:0000:00:0000:00:00
KE7DJD2026-08-31 00:16:2743.55354-115.64910321°29km/h23355m5.9m/s-52.2°C1.1%0hPa0V00:00:0000:00:0000:00:00
KE7DJD2026-08-31 00:16:0643.55247-115.64791311°33km/h23242m5.2m/s-52.3°C1.2%0hPa0V00:00:0000:00:0000:00:00
KE7DJD2026-08-31 00:15:4643.55210-115.64651291°24km/h23133m3.8m/s-51.9°C1.2%0hPa0V00:00:0000:00:0000:00:00
KE7DJD2026-08-31 00:15:2543.55214-115.64538208°22km/h23016m6.0m/s-51.6°C1.1%0hPa0V00:00:0000:00:0000:00:00
KE7DJD2026-08-31 00:15:0543.55256-115.64480185°20km/h22901m4.7m/s-52.1°C1.2%0hPa0V00:00:0000:00:0000:00:00
KE7DJD2026-08-31 00:14:4343.55259-115.64431218°4km/h22788m6.0m/s-52.0°C1.2%0hPa0V00:00:0000:00:0000:00:00
KE7DJD2026-08-31 00:14:2243.55213-115.64369328°18km/h22672m4.6m/s-52.3°C1.2%0hPa0V00:00:0000:00:0000:00:00
KE7DJD2026-08-31 00:14:0143.55188-115.6435854°13km/h22556m6.9m/s-52.2°C1.2%0hPa0V00:00:0000:00:0000:00:00
KE7DJD2026-08-31 00:13:4043.55162-115.6435317°7km/h22442m5.3m/s-52.4°C1.2%0hPa0V00:00:0000:00:0000:00:00
KE7DJD2026-08-31 00:13:2043.55153-115.64355146°5km/h22332m6.2m/s-52.0°C1.2%0hPa0V00:00:0000:00:0000:00:00
KE7DJD2026-08-31 00:12:5943.55175-115.64397238°7km/h22216m4.4m/s-52.4°C1.2%0hPa0V00:00:0000:00:0000:00:00
KE7DJD2026-08-31 00:12:3843.55194-115.6439887°7km/h22101m5.6m/s-52.4°C1.2%0hPa0V00:00:0000:00:0000:00:00
KE7DJD2026-08-31 00:12:1743.55219-115.6447122°9km/h21986m5.4m/s-52.9°C1.2%0hPa0V00:00:0000:00:0000:00:00
KE7DJD2026-08-31 00:11:5743.55225-115.64536326°7km/h21875m5.1m/s-53.5°C1.2%0hPa0V00:00:0000:00:0000:00:00
KE7DJD2026-08-31 00:11:3543.55237-115.64580155°5km/h21766m6.4m/s-53.6°C1.3%0hPa0V00:00:0000:00:0000:00:00
KE7DJD2026-08-31 00:11:1543.55240-115.6469483°26km/h21660m4.1m/s-54.2°C1.3%0hPa0V00:00:0000:00:0000:00:00
KE7DJD2026-08-31 00:10:5443.55210-115.6483851°20km/h21550m4.2m/s-54.7°C1.3%0hPa0V00:00:0000:00:0000:00:00
KE7DJD2026-08-31 00:10:3443.55151-115.6495065°27km/h21445m6.3m/s-54.5°C1.3%0hPa0V00:00:0000:00:0000:00:00
KE7DJD2026-08-31 00:10:1343.55073-115.6508228°15km/h21337m4.5m/s-55.0°C1.3%0hPa0V00:00:0000:00:0000:00:00
KE7DJD2026-08-31 00:09:5243.55012-115.65128241°4km/h21227m4.8m/s-56.1°C1.4%0hPa0V00:00:0000:00:0000:00:00
KE7DJD2026-08-31 00:09:3243.54997-115.65151191°7km/h21121m4.7m/s-56.0°C1.4%0hPa0V00:00:0000:00:0000:00:00
KE7DJD2026-08-31 00:09:1143.54992-115.6525095°16km/h21014m4.8m/s-56.5°C1.5%0hPa0V00:00:0000:00:0000:00:00
KE7DJD2026-08-31 00:08:5143.54955-115.6537569°20km/h20906m5.2m/s-55.8°C1.4%0hPa0V00:00:0000:00:0000:00:00
KE7DJD2026-08-31 00:08:3043.54901-115.6547546°7km/h20793m5.0m/s-55.2°C1.4%0hPa0V00:00:0000:00:0000:00:00
KE7DJD2026-08-31 00:08:0943.54830-115.6554232°24km/h20679m4.8m/s-54.4°C1.4%0hPa0V00:00:0000:00:0000:00:00
KE7DJD2026-08-31 00:07:4943.54737-115.65575355°26km/h20576m6.4m/s-54.2°C1.4%0hPa0V00:00:0000:00:0000:00:00
KE7DJD2026-08-31 00:07:2743.54658-115.65542301°16km/h20460m5.6m/s-53.6°C1.4%0hPa0V00:00:0000:00:0000:00:00
KE7DJD2026-08-31 00:07:0843.54621-115.65483279°20km/h20351m4.6m/s-53.2°C1.3%0hPa0V00:00:0000:00:0000:00:00
KE7DJD2026-08-31 00:06:4743.54611-115.65402219°9km/h20251m6.5m/s-52.9°C1.3%0hPa0V00:00:0000:00:0000:00:00
KE7DJD2026-08-31 00:06:2643.54648-115.6539597°13km/h20141m4.7m/s-53.7°C1.3%0hPa0V00:00:0000:00:0000:00:00
KE7DJD2026-08-31 00:06:0543.54678-115.6550990°20km/h20029m6.2m/s-54.2°C1.3%0hPa0V00:00:0000:00:0000:00:00
KE7DJD2026-08-31 00:05:4443.54658-115.6561977°24km/h19916m5.8m/s-54.9°C1.4%0hPa0V00:00:0000:00:0000:00:00
KE7DJD2026-08-31 00:05:2343.54597-115.6577575°29km/h19805m5.8m/s-55.7°C1.4%0hPa0V00:00:0000:00:0000:00:00
KE7DJD2026-08-31 00:05:0343.54523-115.6598067°37km/h19701m4.9m/s-55.6°C1.5%0hPa0V00:00:0000:00:0000:00:00
KE7DJD2026-08-31 00:04:4243.54400-115.6619046°38km/h19593m6.0m/s-56.5°C1.5%0hPa0V00:00:0000:00:0000:00:00
KE7DJD2026-08-31 00:04:2143.54219-115.6634738°37km/h19481m4.9m/s-57.1°C1.5%0hPa0V00:00:0000:00:0000:00:00
KE7DJD2026-08-31 00:04:0143.54003-115.6641613°37km/h19372m4.4m/s-57.9°C1.6%0hPa0V00:00:0000:00:0000:00:00
KE7DJD2026-08-31 00:03:4043.53857-115.6643512°16km/h19269m3.9m/s-57.4°C1.6%0hPa0V00:00:0000:00:0000:00:00
KE7DJD2026-08-31 00:03:2043.53727-115.6643818km/h19161m5.2m/s-57.2°C1.6%0hPa0V00:00:0000:00:0000:00:00
KE7DJD2026-08-31 00:02:2443.53416-115.6651320km/h18743m5.3m/s-57.8°C1.7%0hPa0V00:00:0000:00:0000:00:00
KE7DJD2026-08-31 00:01:5743.53331-115.6656834°11km/h18636m5.7m/s-57.8°C1.6%0hPa0V00:00:0000:00:0000:00:00
KE7DJD2026-08-31 00:01:2643.53261-115.6661220°15km/h18537m3.2m/s-57.9°C1.7%0hPa0V00:00:0000:00:0000:00:00
KE7DJD2026-08-31 00:01:0143.53218-115.6664559°13km/h18438m5.6m/s-57.8°C1.7%0hPa0V00:00:0000:00:0000:00:00
KE7DJD2026-08-31 00:00:4143.53199-115.6674554°16km/h18343m5.0m/s-57.4°C1.7%0hPa0V00:00:0000:00:0000:00:00
KE7DJD2026-08-31 00:00:1943.53151-115.6690475°29km/h18240m5.4m/s-56.9°C1.6%0hPa0V00:00:0000:00:0000:00:00
KE7DJD2026-08-30 23:59:5443.53079-115.6710155°29km/h18138m6.3m/s-57.2°C1.7%0hPa0V00:00:0000:00:0000:00:00
KE7DJD2026-08-30 23:59:3443.52978-115.6724676°27km/h18037m5.6m/s-56.2°C1.6%0hPa0V00:00:0000:00:0000:00:00
KE7DJD2026-08-30 23:59:1443.52896-115.6738249°20km/h17937m4.7m/s-55.4°C1.5%0hPa0V00:00:0000:00:0000:00:00
KE7DJD2026-08-30 23:58:5343.52804-115.6749457°24km/h17831m4.2m/s-54.4°C1.4%0hPa0V00:00:0000:00:0000:00:00
KE7DJD2026-08-30 23:58:3343.52724-115.6759949°22km/h17730m4.1m/s-55.1°C1.5%0hPa0V00:00:0000:00:0000:00:00
KE7DJD2026-08-30 23:58:1243.52642-115.6780768°33km/h17621m5.5m/s-55.4°C1.6%0hPa0V00:00:0000:00:0000:00:00
KE7DJD2026-08-30 23:57:5143.52506-115.6799153°37km/h17512m5.6m/s-55.1°C1.5%0hPa0V00:00:0000:00:0000:00:00
KE7DJD2026-08-30 23:57:3143.52341-115.6815037°33km/h17414m5.1m/s-54.8°C1.5%0hPa0V00:00:0000:00:0000:00:00
KE7DJD2026-08-30 23:57:1043.52180-115.6829236°27km/h17306m5.9m/s-54.0°C1.5%0hPa0V00:00:0000:00:0000:00:00
KE7DJD2026-08-30 23:56:5043.52069-115.6840353°31km/h17206m5.8m/s-53.7°C1.5%0hPa0V00:00:0000:00:0000:00:00
KE7DJD2026-08-30 23:56:2943.52003-115.6856792°24km/h17104m4.2m/s-54.3°C1.5%0hPa0V00:00:0000:00:0000:00:00
KE7DJD2026-08-30 23:56:0943.51950-115.6878254°37km/h17010m3.5m/s-55.0°C1.7%0hPa0V00:00:0000:00:0000:00:00
KE7DJD2026-08-30 23:55:4943.51882-115.6903972°38km/h16917m5.6m/s-55.0°C1.7%0hPa0V00:00:0000:00:0000:00:00
KE7DJD2026-08-30 23:55:2843.51822-115.6937279°46km/h16823m3.3m/s-55.4°C1.7%0hPa0V00:00:0000:00:0000:00:00
KE7DJD2026-08-30 23:55:0743.51786-115.6968375°46km/h16730m3.5m/s-55.8°C1.8%0hPa0V00:00:0000:00:0000:00:00
KE7DJD2026-08-30 23:54:4743.51750-115.7002581°57km/h16644m4.4m/s-56.3°C1.8%0hPa0V00:00:0000:00:0000:00:00
KE7DJD2026-08-30 23:54:2743.51682-115.7035680°47km/h16551m3.3m/s-56.5°C1.8%0hPa0V00:00:0000:00:0000:00:00
KE7DJD2026-08-30 23:54:0643.51562-115.7074568°60km/h16454m5.2m/s-56.7°C1.9%0hPa0V00:00:0000:00:0000:00:00
KE7DJD2026-08-30 23:53:4643.51426-115.7107161°49km/h16364m4.8m/s-56.4°C1.8%0hPa0V00:00:0000:00:0000:00:00
KE7DJD2026-08-30 23:53:2543.51259-115.7138052°46km/h16267m4.7m/s-55.7°C1.8%0hPa0V00:00:0000:00:0000:00:00
KE7DJD2026-08-30 23:53:0543.51122-115.7163465°42km/h16173m5.5m/s-55.8°C1.9%0hPa0V00:00:0000:00:0000:00:00
KE7DJD2026-08-30 23:52:4543.51012-115.7191161°46km/h16077m4.9m/s-55.3°C1.8%0hPa0V00:00:0000:00:0000:00:00
KE7DJD2026-08-30 23:52:2643.50935-115.7218980°47km/h15983m4.4m/s-55.1°C1.8%0hPa0V00:00:0000:00:0000:00:00
KE7DJD2026-08-30 23:52:0443.50889-115.7254986°57km/h15883m4.9m/s-55.5°C1.8%0hPa0V00:00:0000:00:0000:00:00
KE7DJD2026-08-30 23:51:4443.50823-115.7295871°60km/h15789m4.3m/s-56.3°C1.9%0hPa0V00:00:0000:00:0000:00:00
KE7DJD2026-08-30 23:51:2443.50715-115.7333661°55km/h15694m3.3m/s-56.7°C2.0%0hPa0V00:00:0000:00:0000:00:00
KE7DJD2026-08-30 23:51:0443.50603-115.7367362°49km/h15599m4.4m/s-56.9°C2.0%0hPa0V00:00:0000:00:0000:00:00
KE7DJD2026-08-30 23:50:4343.50486-115.7406263°68km/h15503m5.6m/s-57.0°C2.1%0hPa0V00:00:0000:00:0000:00:00
KE7DJD2026-08-30 23:50:2343.50367-115.7443168°47km/h15412m4.3m/s-56.4°C2.1%0hPa0V00:00:0000:00:0000:00:00
KE7DJD2026-08-30 23:50:0343.50241-115.7476458°46km/h15322m4.7m/s-56.2°C2.1%0hPa0V00:00:0000:00:0000:00:00
KE7DJD2026-08-30 23:49:4243.50145-115.7508277°49km/h15224m5.5m/s-56.1°C2.2%0hPa0V00:00:0000:00:0000:00:00
KE7DJD2026-08-30 23:49:2143.50053-115.7546467°60km/h15131m3.8m/s-56.1°C2.2%0hPa0V00:00:0000:00:0000:00:00
KE7DJD2026-08-30 23:49:0043.49966-115.7588682°60km/h15037m4.5m/s-56.6°C2.4%0hPa0V00:00:0000:00:0000:00:00
KE7DJD2026-08-30 23:48:3943.49908-115.7631583°57km/h14942m3.9m/s-57.2°C2.7%0hPa0V00:00:0000:00:0000:00:00
KE7DJD2026-08-30 23:48:1843.49836-115.7673780°53km/h14846m3.6m/s-57.0°C2.8%0hPa0V00:00:0000:00:0000:00:00
KE7DJD2026-08-30 23:47:5943.49776-115.7709882°46km/h14752m3.3m/s-57.7°C3.1%0hPa0V00:00:0000:00:0000:00:00
KE7DJD2026-08-30 23:47:3843.49743-115.7747096°58km/h14655m3.6m/s-58.3°C3.4%0hPa0V00:00:0000:00:0000:00:00
KE7DJD2026-08-30 23:47:1843.49715-115.7789582°60km/h14562m5.2m/s-58.1°C3.4%0hPa0V00:00:0000:00:0000:00:00
KE7DJD2026-08-30 23:46:5743.49630-115.7834275°62km/h14463m5.5m/s-57.9°C3.5%0hPa0V00:00:0000:00:0000:00:00
KE7DJD2026-08-30 23:46:3743.49506-115.7875268°62km/h14370m5.6m/s-57.2°C3.5%0hPa0V00:00:0000:00:0000:00:00
KE7DJD2026-08-30 23:46:1643.49366-115.7915359°57km/h14270m5.9m/s-56.4°C3.5%0hPa0V00:00:0000:00:0000:00:00
KE7DJD2026-08-30 23:45:5643.49307-115.7950186°64km/h14123m7.5m/s-56.0°C3.4%0hPa0V00:00:0000:00:0000:00:00
KE7DJD2026-08-30 23:45:3643.49278-115.7995979°62km/h14020m4.2m/s-55.8°C3.6%0hPa0V00:00:0000:00:0000:00:00
KE7DJD2026-08-30 23:45:1543.49213-115.8042478°58km/h13923m3.5m/s-55.8°C3.9%0hPa0V00:00:0000:00:0000:00:00
KE7DJD2026-08-30 23:44:5643.49173-115.8087386°62km/h13833m3.1m/s-56.3°C4.4%0hPa0V00:00:0000:00:0000:00:00
KE7DJD2026-08-30 23:44:3543.49133-115.8136676°69km/h13745m4.8m/s-56.4°C5.0%0hPa0V00:00:0000:00:0000:00:00
KE7DJD2026-08-30 23:44:1543.49088-115.8180791°51km/h13646m5.5m/s-56.6°C5.7%0hPa0V00:00:0000:00:0000:00:00
KE7DJD2026-08-30 23:43:5443.49125-115.8222697°69km/h13550m3.5m/s-57.0°C6.3%0hPa0V00:00:0000:00:0000:00:00
KE7DJD2026-08-30 23:43:3343.49191-115.8270998°75km/h13453m5.3m/s-57.3°C7.3%0hPa0V00:00:0000:00:0000:00:00
KE7DJD2026-08-30 23:43:1343.49205-115.8323586°78km/h13360m4.0m/s-57.5°C8.6%0hPa0V00:00:0000:00:0000:00:00
KE7DJD2026-08-30 23:42:5243.49154-115.8374283°68km/h13263m3.8m/s-58.2°C9.7%0hPa0V00:00:0000:00:0000:00:00
KE7DJD2026-08-30 23:42:3143.49116-115.8413978°51km/h13167m5.3m/s-57.6°C10.5%0hPa0V00:00:0000:00:0000:00:00
KE7DJD2026-08-30 23:42:1043.49109-115.8449188°42km/h13067m3.9m/s-57.3°C11.6%0hPa0V00:00:0000:00:0000:00:00
KE7DJD2026-08-30 23:41:5043.49151-115.84806111°51km/h12977m4.7m/s-57.3°C14.0%0hPa0V00:00:0000:00:0000:00:00
KE7DJD2026-08-30 23:41:3043.49256-115.85162122°49km/h12882m5.3m/s-57.9°C17.7%0hPa0V00:00:0000:00:0000:00:00
KE7DJD2026-08-30 23:41:0943.49371-115.85517114°58km/h12795m4.5m/s-58.1°C21.0%0hPa0V00:00:0000:00:0000:00:00
KE7DJD2026-08-30 23:40:2943.49477-115.86266100°58km/h12617m4.6m/s-58.7°C30.3%0hPa0V00:00:0000:00:0000:00:00
KE7DJD2026-08-30 23:40:0743.49511-115.8665894°46km/h12524m5.1m/s-59.5°C39.8%0hPa0V00:00:0000:00:0000:00:00
KE7DJD2026-08-30 23:39:4843.49551-115.8698598°47km/h12434m2.5m/s-59.3°C43.9%0hPa0V00:00:0000:00:0000:00:00
KE7DJD2026-08-30 23:39:2643.49610-115.87267131°37km/h12338m3.9m/s-58.7°C45.9%0hPa0V00:00:0000:00:0000:00:00
KE7DJD2026-08-30 23:39:0743.49721-115.87537142°57km/h12212m6.8m/s-58.4°C43.9%0hPa0V00:00:0000:00:0000:00:00
KE7DJD2026-08-30 23:38:4743.49908-115.87762145°60km/h12082m6.4m/s-58.2°C41.8%0hPa0V00:00:0000:00:0000:00:00
KE7DJD2026-08-30 23:38:2743.50144-115.88051138°58km/h11995m4.4m/s-57.6°C40.0%0hPa0V00:00:0000:00:0000:00:00
KE7DJD2026-08-30 23:38:0643.50391-115.88327139°55km/h11902m4.8m/s-56.9°C41.4%0hPa0V00:00:0000:00:0000:00:00
KE7DJD2026-08-30 23:37:4543.50610-115.88607137°60km/h11813m4.1m/s-56.1°C41.6%0hPa0V00:00:0000:00:0000:00:00
KE7DJD2026-08-30 23:37:2543.50816-115.88887127°55km/h11726m3.7m/s-55.5°C45.5%0hPa0V00:00:0000:00:0000:00:00
KE7DJD2026-08-30 23:37:0543.51003-115.89188122°53km/h11635m5.2m/s-54.7°C45.1%0hPa0V00:00:0000:00:0000:00:00
KE7DJD2026-08-30 23:36:4343.51186-115.89501127°51km/h11548m4.8m/s-54.2°C47.8%0hPa0V00:00:0000:00:0000:00:00
KE7DJD2026-08-30 23:36:2343.51342-115.89820126°58km/h11465m4.6m/s-53.7°C49.9%0hPa0V00:00:0000:00:0000:00:00
KE7DJD2026-08-30 23:36:0443.51492-115.90173120°55km/h11382m2.8m/s-53.1°C54.4%0hPa0V00:00:0000:00:0000:00:00
KE7DJD2026-08-30 23:35:4343.51640-115.90548116°60km/h11305m4.2m/s-52.6°C56.2%0hPa0V00:00:0000:00:0000:00:00
KE7DJD2026-08-30 23:35:2343.51789-115.90952114°66km/h11229m4.5m/s-52.0°C51.7%0hPa0V00:00:0000:00:0000:00:00
KE7DJD2026-08-30 23:35:0343.51957-115.91328126°69km/h11153m4.4m/s-51.3°C52.5%0hPa0V00:00:0000:00:0000:00:00
KE7DJD2026-08-30 23:34:4243.52119-115.91728113°60km/h11071m3.5m/s-50.5°C49.9%0hPa0V00:00:0000:00:0000:00:00
KE7DJD2026-08-30 23:34:2143.52279-115.92106114°62km/h10997m3.6m/s-49.8°C48.1%0hPa0V00:00:0000:00:0000:00:00
KE7DJD2026-08-30 23:34:0143.52447-115.92526118°80km/h10916m4.9m/s-49.1°C50.3%0hPa0V00:00:0000:00:0000:00:00
KE7DJD2026-08-30 23:33:4143.52625-115.92899119°66km/h10805m2.5m/s-48.2°C50.3%0hPa0V00:00:0000:00:0000:00:00
KE7DJD2026-08-30 23:33:2043.52749-115.93297121°57km/h10716m2.9m/s-47.4°C46.1%0hPa0V00:00:0000:00:0000:00:00
KE7DJD2026-08-30 23:33:0043.52886-115.93724125°57km/h10631m4.0m/s-46.6°C42.8%0hPa0V00:00:0000:00:0000:00:00
KE7DJD2026-08-30 23:32:3943.53019-115.94135114°77km/h10546m5.2m/s-45.9°C39.0%0hPa0V00:00:0000:00:0000:00:00
KE7DJD2026-08-30 23:32:1843.53144-115.94563110°58km/h10454m5.1m/s-45.0°C35.1%0hPa0V00:00:0000:00:0000:00:00
KE7DJD2026-08-30 23:31:5943.53243-115.94976107°60km/h10367m5.6m/s-44.3°C36.0%0hPa0V00:00:0000:00:0000:00:00
KE7DJD2026-08-30 23:31:3943.53355-115.95391110°57km/h10278m4.2m/s-43.5°C34.0%0hPa0V00:00:0000:00:0000:00:00
KE7DJD2026-08-30 23:31:1943.53463-115.95795113°62km/h10190m2.8m/s-42.9°C48.8%0hPa0V00:00:0000:00:0000:00:00
KE7DJD2026-08-30 23:30:5943.53559-115.96217112°64km/h10098m3.8m/s-42.1°C53.0%0hPa0V00:00:0000:00:0000:00:00
KE7DJD2026-08-30 23:30:3843.53651-115.96693102°77km/h10004m4.2m/s-41.3°C55.1%0hPa0V00:00:0000:00:0000:00:00
KE7DJD2026-08-30 23:30:1843.53751-115.97146101°68km/h9912m4.9m/s-40.7°C55.4%0hPa0V00:00:0000:00:0000:00:00
KE7DJD2026-08-30 23:29:5643.53853-115.97623109°78km/h9818m3.6m/s-39.9°C62.1%0hPa0V00:00:0000:00:0000:00:00
KE7DJD2026-08-30 23:29:3543.53964-115.98101114°84km/h9718m4.4m/s-39.1°C65.5%0hPa0V00:00:0000:00:0000:00:00
KE7DJD2026-08-30 23:29:1643.54068-115.98551111°68km/h9607m5.7m/s-38.1°C64.6%0hPa0V00:00:0000:00:0000:00:00
KE7DJD2026-08-30 23:28:5543.54147-115.9901797°69km/h9495m3.7m/s-37.2°C66.5%0hPa0V00:00:0000:00:0000:00:00
KE7DJD2026-08-30 23:28:3443.54234-115.99486112°73km/h9396m4.4m/s-36.4°C68.8%0hPa0V00:00:0000:00:0000:00:00
KE7DJD2026-08-30 23:28:1443.54313-115.99966107°75km/h9291m3.9m/s-35.5°C69.3%0hPa0V00:00:0000:00:0000:00:00
KE7DJD2026-08-30 23:27:5243.54374-116.0045294°66km/h9195m4.3m/s-34.7°C68.8%0hPa0V00:00:0000:00:0000:00:00
KE7DJD2026-08-30 23:27:3143.54419-116.00929104°60km/h9081m5.1m/s-33.8°C67.1%0hPa0V00:00:0000:00:0000:00:00
KE7DJD2026-08-30 23:27:1243.54473-116.0138994°82km/h8974m7.5m/s-33.0°C65.7%0hPa0V00:00:0000:00:0000:00:00
KE7DJD2026-08-30 23:26:5043.54516-116.0187999°86km/h8869m2.8m/s-32.1°C64.3%0hPa0V00:00:0000:00:0000:00:00
KE7DJD2026-08-30 23:26:3043.54553-116.0233589°57km/h8758m3.7m/s-31.1°C61.9%0hPa0V00:00:0000:00:0000:00:00
KE7DJD2026-08-30 23:26:1043.54546-116.0280196°73km/h8647m5.1m/s-30.1°C59.4%0hPa0V00:00:0000:00:0000:00:00
KE7DJD2026-08-30 23:25:4943.54564-116.0328890°66km/h8550m5.2m/s-29.4°C59.8%0hPa0V00:00:0000:00:0000:00:00
KE7DJD2026-08-30 23:25:2843.54593-116.03807110°66km/h8446m3.5m/s-28.6°C57.8%0hPa0V00:00:0000:00:0000:00:00
KE7DJD2026-08-30 23:25:0743.54647-116.0432588°73km/h8320m2.7m/s-27.5°C62.4%0hPa0V00:00:0000:00:0000:00:00
KE7DJD2026-08-30 23:24:4643.54689-116.0482994°77km/h8201m3.8m/s-26.6°C59.4%0hPa0V00:00:0000:00:0000:00:00
KE7DJD2026-08-30 23:24:2643.54735-116.0528491°60km/h8101m3.8m/s-25.7°C56.5%0hPa0V00:00:0000:00:0000:00:00
KE7DJD2026-08-30 23:24:0543.54766-116.0575485°57km/h7988m9.2m/s-24.9°C52.8%0hPa0V00:00:0000:00:0000:00:00
KE7DJD2026-08-30 23:23:4543.54819-116.06190102°66km/h7867m5.3m/s-24.0°C53.0%0hPa0V00:00:0000:00:0000:00:00
KE7DJD2026-08-30 23:23:2443.54844-116.06660101°78km/h7754m6.1m/s-23.3°C55.9%0hPa0V00:00:0000:00:0000:00:00
KE7DJD2026-08-30 23:23:0443.54867-116.0706198°66km/h7633m7.3m/s-22.4°C50.9%0hPa0V00:00:0000:00:0000:00:00
KE7DJD2026-08-30 23:22:4443.54872-116.0748595°55km/h7514m4.0m/s-21.8°C54.4%0hPa0V00:00:0000:00:0000:00:00
KE7DJD2026-08-30 23:22:2443.54855-116.0792878°68km/h7396m6.8m/s-21.2°C54.8%0hPa0V00:00:0000:00:0000:00:00
KE7DJD2026-08-30 23:22:0443.54839-116.08402101°68km/h7265m4.7m/s-20.5°C51.7%0hPa0V00:00:0000:00:0000:00:00
KE7DJD2026-08-30 23:21:4443.54836-116.0883297°58km/h7141m3.0m/s-19.9°C50.9%0hPa0V00:00:0000:00:0000:00:00
KE7DJD2026-08-30 23:21:2343.54849-116.0921292°71km/h7012m4.8m/s-18.8°C47.0%0hPa0V00:00:0000:00:0000:00:00
KE7DJD2026-08-30 23:21:0143.54892-116.0961691°57km/h6866m6.5m/s-17.8°C45.8%0hPa0V00:00:0000:00:0000:00:00
KE7DJD2026-08-30 23:20:4043.54911-116.1004999°40km/h6732m4.5m/s-17.3°C49.4%0hPa0V00:00:0000:00:0000:00:00
KE7DJD2026-08-30 23:20:2043.54943-116.10508100°60km/h6602m4.3m/s-16.4°C49.5%0hPa0V00:00:0000:00:0000:00:00
KE7DJD2026-08-30 23:19:5943.54973-116.1095883°64km/h6475m6.0m/s-15.8°C50.6%0hPa0V00:00:0000:00:0000:00:00
KE7DJD2026-08-30 23:19:3843.54954-116.1135282°46km/h6342m6.6m/s-14.7°C46.4%0hPa0V00:00:0000:00:0000:00:00
KE7DJD2026-08-30 23:19:1743.54933-116.1174985°62km/h6194m8.6m/s-13.8°C44.9%0hPa0V00:00:0000:00:0000:00:00
KE7DJD2026-08-30 23:18:5643.54948-116.12157108°55km/h6067m7.0m/s-12.9°C46.4%0hPa0V00:00:0000:00:0000:00:00
KE7DJD2026-08-30 23:18:3543.54988-116.12505107°37km/h5951m6.3m/s-12.1°C44.9%0hPa0V00:00:0000:00:0000:00:00
KE7DJD2026-08-30 23:18:1443.55042-116.1283786°44km/h5816m5.0m/s-11.0°C44.5%0hPa0V00:00:0000:00:0000:00:00
KE7DJD2026-08-30 23:17:5343.55076-116.1318997°38km/h5697m5.8m/s-9.9°C37.8%0hPa0V00:00:0000:00:0000:00:00
KE7DJD2026-08-30 23:17:3343.55120-116.13479102°42km/h5581m5.1m/s-8.9°C35.2%0hPa0V00:00:0000:00:0000:00:00
KE7DJD2026-08-30 23:17:1243.55143-116.1376197°55km/h5458m6.1m/s-7.9°C30.9%0hPa0V00:00:0000:00:0000:00:00
KE7DJD2026-08-30 23:16:5143.55206-116.14053113°42km/h5336m4.6m/s-6.9°C28.4%0hPa0V00:00:0000:00:0000:00:00
KE7DJD2026-08-30 23:16:3043.55221-116.1430097°42km/h5214m7.1m/s-6.0°C24.3%0hPa0V00:00:0000:00:0000:00:00
KE7DJD2026-08-30 23:16:0943.55249-116.14532114°37km/h5092m5.0m/s-5.5°C13.2%0hPa0V00:00:0000:00:0000:00:00
KE7DJD2026-08-30 23:15:4943.55283-116.1477890°35km/h4982m5.0m/s-4.4°C13.8%0hPa0V00:00:0000:00:0000:00:00
KE7DJD2026-08-30 23:15:2843.55322-116.15015104°42km/h4863m6.9m/s-3.8°C4.7%0hPa0V00:00:0000:00:0000:00:00
KE7DJD2026-08-30 23:15:0843.55337-116.1527981°24km/h4755m4.7m/s-3.0°C7.3%0hPa0V00:00:0000:00:0000:00:00
KE7DJD2026-08-30 23:14:4743.55386-116.15536112°27km/h4639m4.0m/s-2.8°C4.0%0hPa0V00:00:0000:00:0000:00:00
KE7DJD2026-08-30 23:14:2643.55409-116.1580186°29km/h4531m3.5m/s-2.3°C4.2%0hPa0V00:00:0000:00:0000:00:00
KE7DJD2026-08-30 23:14:0543.55435-116.1603888°33km/h4409m5.1m/s-1.3°C4.1%0hPa0V00:00:0000:00:0000:00:00
KE7DJD2026-08-30 23:13:4543.55476-116.16299110°31km/h4304m3.1m/s-0.4°C3.8%0hPa0V00:00:0000:00:0000:00:00
KE7DJD2026-08-30 23:13:2543.55517-116.1653285°31km/h4202m5.2m/s0.0°C4.8%0hPa0V00:00:0000:00:0000:00:00
KE7DJD2026-08-30 23:13:0443.55540-116.1673299°29km/h4097m4.8m/s0.8°C3.7%0hPa0V00:00:0000:00:0000:00:00
KE7DJD2026-08-30 23:12:4443.55575-116.1692289°26km/h3996m6.2m/s1.4°C2.8%0hPa0V00:00:0000:00:0000:00:00
KE7DJD2026-08-30 23:12:2343.55608-116.17124105°24km/h3886m5.0m/s2.2°C2.5%0hPa0V00:00:0000:00:0000:00:00
KE7DJD2026-08-30 23:12:0243.55619-116.1737881°27km/h3773m4.2m/s2.1°C2.5%0hPa0V00:00:0000:00:0000:00:00
KE7DJD2026-08-30 23:11:4243.55650-116.17562112°44km/h3669m4.0m/s2.7°C2.7%0hPa0V00:00:0000:00:0000:00:00
KE7DJD2026-08-30 23:11:2143.55695-116.1775381°38km/h3563m4.7m/s3.3°C3.0%0hPa0V00:00:0000:00:0000:00:00
KE7DJD2026-08-30 23:11:0043.55727-116.18000116°35km/h3459m3.7m/s3.8°C3.6%0hPa0V00:00:0000:00:0000:00:00
KE7DJD2026-08-30 23:10:3943.55756-116.18230117°38km/h3367m5.3m/s3.3°C9.2%0hPa0V00:00:0000:00:0000:00:00
KE7DJD2026-08-30 23:10:1843.55803-116.18520101°38km/h3278m5.5m/s3.8°C12.8%0hPa0V00:00:0000:00:0000:00:00
KE7DJD2026-08-30 23:09:3743.55914-116.19035105°40km/h3082m3.5m/s5.0°C14.0%0hPa0V00:00:0000:00:0000:00:00
KE7DJD2026-08-30 23:09:1643.55962-116.19279108°37km/h2971m6.7m/s5.3°C14.7%0hPa0V00:00:0000:00:0000:00:00
KE7DJD2026-08-30 23:08:5643.55997-116.1945398°35km/h2852m6.1m/s6.2°C13.8%0hPa0V00:00:0000:00:0000:00:00
KE7DJD2026-08-30 23:08:3543.55999-116.19636100°18km/h2745m5.6m/s6.9°C17.0%0hPa0V00:00:0000:00:0000:00:00
KE7DJD2026-08-30 23:08:1443.56006-116.1977988°31km/h2636m5.7m/s7.7°C16.3%0hPa0V00:00:0000:00:0000:00:00
KE7DJD2026-08-30 23:07:5343.56018-116.19980134°22km/h2512m6.9m/s8.9°C6.4%0hPa0V00:00:0000:00:0000:00:00
KE7DJD2026-08-30 23:07:3343.56043-116.20139111°33km/h2383m5.2m/s9.7°C9.2%0hPa0V00:00:0000:00:0000:00:00
KE7DJD2026-08-30 23:07:1243.56089-116.20271128°22km/h2267m4.8m/s10.4°C7.4%0hPa0V00:00:0000:00:0000:00:00
KE7DJD2026-08-30 23:06:5143.56144-116.20407133°26km/h2159m4.9m/s11.2°C7.5%0hPa0V00:00:0000:00:0000:00:00
KE7DJD2026-08-30 23:06:3143.56199-116.20515133°11km/h2052m4.6m/s11.9°C7.4%0hPa0V00:00:0000:00:0000:00:00
KE7DJD2026-08-30 23:06:1043.56274-116.20604153°22km/h1945m5.2m/s12.6°C8.5%0hPa0V00:00:0000:00:0000:00:00
KE7DJD2026-08-30 23:05:5043.56321-116.20714178°16km/h1838m4.2m/s13.4°C10.7%0hPa0V00:00:0000:00:0000:00:00
KE7DJD2026-08-30 23:05:2943.56384-116.20767189°16km/h1724m5.9m/s13.5°C27.8%0hPa0V00:00:0000:00:0000:00:00
KE7DJD2026-08-30 23:05:0843.56438-116.20792165°20km/h1552m7.2m/s14.9°C0%0hPa0V00:00:0000:00:0000:00:00
KE7DJD2026-08-30 23:04:4843.56505-116.20844157°13km/h1392m8.8m/s0°C0%0hPa0V00:00:0000:00:0000:00:00
KE7DJD2026-08-30 23:04:2743.56598-116.20934125°13km/h1239m7.5m/s0°C0%0hPa0V00:00:0000:00:0000:00:00


GPX KML Map

© wettersonde.net (DO2JMG) - 2026  -  -